Wind_Speed
8 8 7 6 6 6 6 5 5 5 4 4 4 4 5 5 5 6 7 8 8 9 10 11 12 12 13 14 15 15 16 17 18 19 20 20 21 21 22 23 23 23 23
9 8 8 7 6 6 5 5 4 4 4 4 4 4 4 5 6 6 7 8 9 10 10 11 12 13 13 14 15 16 16 17 18 19 19 20 21 21 22 22 23 24 25
10 9 8 7 6 5 5 5 5 5 4 4 4 4 5 5 6 7 8 9 9 10 11 12 12 13 14 15 16 16 17 17 18 19 19 20 20 21 21 21 22 23 24
10 9 8 8 7 6 6 5 6 5 5 5 5 5 6 6 7 8 9 10 10 11 11 12 13 14 15 16 17 17 18 18 19 19 20 20 20 21 21 21 22 23 23
11 10 9 9 8 7 6 6 6 6 6 6 6 6 7 7 8 9 10 10 11 12 12 13 14 15 16 17 17 18 18 19 19 20 20 20 20 21 22 22 22 23 24
12 11 10 9 9 8 7 7 7 7 7 7 7 8 8 8 9 9 10 11 12 13 14 15 15 16 17 18 18 18 18 19 19 20 20 20 21 21 22 22 23 24 24
13 12 11 10 10 9 8 8 8 8 8 8 8 9 9 9 9 10 10 11 12 13 14 15 15 16 17 18 18 18 19 19 20 20 21 21 21 22 22 23 24 24 24
14 13 13 12 11 10 9 9 9 8 8 9 9 9 10 10 10 10 11 12 13 14 14 15 16 17 17 18 18 19 19 20 20 21 21 21 22 22 23 23 24 24 25
15 15 14 13 12 12 11 10 10 9 10 10 10 10 11 11 11 11 12 13 14 14 15 16 17 17 18 18 18 19 19 20 21 21 21 22 22 23 23 24 24 25 25
17 16 15 15 14 13 12 11 11 11 11 11 11 11 11 11 12 12 13 14 14 15 16 17 17 18 18 18 18 19 20 20 21 22 22 23 23 23 24 24 25 25 26
18 18 17 16 15 14 13 12 12 12 12 12 12 12 12 12 13 14 14 15 15 16 16 17 18 18 18 18 19 20 20 21 22 22 23 23 24 24 24 25 26 26 27
20 19 18 18 16 15 15 14 14 13 13 13 13 13 13 14 14 15 15 16 16 17 17 18 18 19 19 19 20 20 21 22 23 23 24 24 24 25 25 26 26 27 27
21 20 20 19 18 17 16 16 16 15 15 15 15 15 15 15 15 16 16 17 17 18 18 19 19 20 20 20 21 22 22 23 24 24 25 25 25 26 26 27 27 28 28
22 22 21 20 19 18 18 18 17 17 16 16 16 16 16 17 17 17 18 18 19 19 20 20 21 21 21 21 22 22 23 24 25 25 26 26 26 26 27 27 28 28 29
24 23 23 22 21 20 20 19 19 18 18 18 17 18 18 18 18 19 19 20 20 20 21 21 22 22 22 23 23 24 25 25 26 26 26 27 27 27 28 28 29 29 30
25 25 24 23 23 22 21 21 20 20 19 19 19 20 20 20 20 20 21 21 21 22 22 22 23 23 24 24 25 26 26 27 27 27 27 28 28 29 29 30 30 30 31
27 26 25 25 24 24 23 22 22 21 21 21 21 22 22 22 22 22 22 22 23 23 23 24 24 25 26 26 27 27 27 28 28 28 29 29 29 30 30 31 31 32 32
29 28 27 26 26 25 25 24 23 23 23 23 23 23 24 23 24 24 24 24 24 24 24 25 26 26 27 28 28 29 29 29 29 29 30 30 30 31 31 32 32 33 33
31 30 29 28 28 27 26 26 25 25 25 25 25 25 25 25 25 25 25 25 25 26 26 27 28 28 29 29 30 30 30 30 30 31 31 31 31 32 32 33 34 34 35
33 32 31 30 30 29 28 28 27 27 27 27 27 27 27 27 27 27 27 27 27 28 28 29 29 30 30 30 31 31 31 31 32 32 32 33 33 33 34 35 36 36 37
35 33 32 32 31 31 30 29 29 29 29 29 29 29 29 29 29 28 28 28 29 29 30 30 30 31 31 32 32 32 32 33 33 33 34 34 35 35 36 37 37 38 39
36 35 34 33 33 32 32 31 31 31 31 30 30 30 30 30 30 30 30 30 31 31 31 32 32 32 33 33 33 33 33 33 34 35 35 36 36 37 38 39 39 40 41
38 37 36 35 35 35 34 34 33 33 32 32 32 32 32 32 32 32 32 32 32 32 33 33 34 34 34 34 34 35 35 34 35 35 36 37 38 39 40 41 41 42 43
41 40 39 38 38 37 37 36 35 34 34 34 34 34 34 33 33 33 34 34 34 34 34 34 35 35 35 35 36 36 37 37 37 37 37 38 39 40 41 42 43 44 45
43 43 41 40 40 40 39 38 37 36 36 36 36 36 36 35 35 35 35 35 35 35 36 36 36 36 36 37 37 38 38 39 39 39 39 39 40 41 42 43 44 45 46
45 45 44 42 41 41 41 40 40 39 38 38 38 38 37 37 36 36 37 37 37 37 37 37 37 37 38 39 39 39 40 40 41 41 41 41 42 42 43 44 45 46 47
Wind_Direction
265 266 267 266 271 276 277 275 272 271 273 276 280 286 292 296 298 301 303 306 308 309 310 308 308 308 308 308 307 306 304 303 302 301 300 299 298 298 297 297 296 295 296
260 262 262 262 266 270 271 271 270 273 277 282 283 288 295 299 300 301 303 306 308 309 311 311 312 311 310 309 308 307 306 306 306 306 305 303 301 300 298 298 297 296 296
258 258 258 258 262 267 271 272 270 275 279 282 284 288 296 302 305 305 306 307 308 309 309 310 311 311 311 311 310 310 309 309 309 309 309 309 307 306 304 302 300 298 298
254 253 252 253 256 264 272 275 273 273 276 280 285 288 294 298 300 302 303 304 306 307 308 308 309 311 311 311 311 310 310 310 310 310 310 310 309 308 307 306 305 303 302
250 249 250 251 254 262 269 273 272 271 276 281 285 289 292 295 296 299 301 304 306 307 307 307 308 309 310 310 311 310 310 311 311 312 312 312 311 311 310 309 308 306 305
248 247 247 248 252 258 263 266 269 270 274 277 282 286 289 292 294 297 301 304 306 307 308 308 308 309 310 310 311 311 311 312 312 312 313 312 312 312 311 310 309 308 307
246 247 246 247 250 254 259 263 266 269 273 276 280 285 288 292 295 298 301 305 307 308 309 309 309 309 310 311 311 312 313 313 313 313 313 313 314 313 312 311 310 309 309
246 248 247 248 251 253 257 260 264 268 272 276 280 283 286 290 295 299 302 304 307 309 310 310 311 311 311 311 311 312 312 313 313 313 312 312 313 313 313 312 311 311 310
244 246 248 249 252 253 255 258 263 268 271 275 278 281 284 288 293 297 301 303 306 309 309 311 311 312 312 312 312 312 312 312 313 313 312 312 313 313 313 313 312 312 312
243 245 247 250 252 254 256 258 263 267 270 273 275 278 282 285 290 296 299 302 304 306 308 309 309 310 311 311 312 312 312 312 313 313 313 313 313 313 313 313 313 313 313
245 245 247 249 251 253 255 257 262 266 269 272 274 274 278 283 288 294 297 299 301 304 306 307 308 308 309 310 310 311 311 312 312 313 313 312 312 312 312 312 313 313 313
245 246 246 247 250 252 254 257 261 266 269 270 271 271 276 281 286 291 295 298 300 301 304 305 305 306 306 307 308 309 310 310 311 312 312 311 311 311 311 311 311 311 312
245 246 247 247 249 252 255 258 261 265 268 268 269 270 274 279 284 288 292 295 297 299 301 302 304 304 304 305 306 307 308 309 310 310 310 310 309 309 310 310 310 310 310
245 247 248 249 250 253 256 259 261 264 266 268 269 270 273 278 282 286 289 292 294 296 297 299 301 302 302 303 304 305 307 308 308 308 309 309 309 309 309 310 310 310 310
245 247 249 249 251 254 257 260 262 263 265 267 269 270 274 278 282 285 287 289 292 293 294 296 299 299 300 301 302 303 305 306 305 305 307 308 308 308 308 309 309 310 310
246 248 249 250 252 255 257 259 262 263 264 266 268 271 274 277 281 283 285 287 289 291 293 294 296 297 298 299 300 301 302 303 303 303 304 305 306 306 307 308 308 308 309
246 248 249 250 253 254 257 259 261 262 263 265 268 270 273 276 280 282 283 285 287 290 291 293 294 295 297 297 298 299 300 301 301 301 302 303 304 305 306 306 306 307 307
246 248 249 250 252 254 256 258 259 261 263 265 267 270 272 274 278 281 282 284 286 288 290 291 293 294 295 296 297 297 298 299 299 300 300 301 303 303 304 305 305 306 306
246 248 249 251 252 254 255 256 259 261 263 264 266 269 271 274 277 279 282 283 285 286 288 290 291 292 293 295 296 296 297 297 298 298 299 300 301 301 302 303 304 305 305
246 248 250 251 252 254 255 256 259 261 263 264 266 268 271 273 276 278 280 282 284 285 287 288 290 291 292 293 294 295 295 296 296 297 298 298 299 300 301 301 303 303 304
246 247 249 250 252 254 255 257 259 260 262 264 266 268 270 272 274 276 279 281 283 285 286 287 289 290 291 292 293 294 294 295 295 296 297 297 298 299 300 301 302 302 303
246 247 248 250 251 253 255 256 258 260 262 264 265 267 269 271 273 275 277 280 283 284 286 287 288 289 290 291 292 292 292 292 293 294 295 296 296 298 299 300 301 301 302
246 247 248 249 251 253 255 256 259 261 262 263 264 266 268 270 272 274 277 279 282 283 285 286 287 288 289 289 290 291 291 290 290 292 293 294 295 297 298 299 300 301 301
247 248 248 249 251 253 255 257 259 261 262 263 264 266 267 270 272 274 276 279 281 282 283 285 286 288 288 288 290 291 291 291 291 291 292 293 294 296 297 298 298 300 301
248 249 250 251 251 253 255 257 259 260 261 262 263 265 267 268 271 273 276 278 280 281 282 284 285 287 288 288 289 290 291 291 291 292 292 292 294 295 297 297 298 299 301
249 250 251 252 252 253 254 256 258 258 259 261 262 264 266 268 270 273 275 277 279 280 281 283 285 286 287 288 289 290 291 291 291 292 292 292 294 296 297 297 298 299 300
Height
5858 5859 5859 5859 5859 5859 5859 5859 5859 5860 5860 5860 5859 5860 5860 5860 5860 5860 5859 5859 5859 5859 5858 5858 5857 5857 5856 5855 5854 5853 5852 5851 5850 5849 5848 5847 5846 5845 5844 5843 5842 5841 5840
5857 5857 5857 5857 5857 5858 5858 5858 5858 5858 5858 5858 5858 5858 5858 5858 5858 5858 5858 5858 5857 5857 5856 5856 5855 5854 5854 5853 5852 5851 5850 5849 5848 5846 5845 5844 5843 5842 5840 5839 5838 5837 5836
5855 5855 5855 5856 5856 5856 5856 5856 5856 5856 5856 5856 5856 5857 5857 5857 5857 5857 5856 5856 5856 5855 5855 5854 5853 5852 5851 5850 5849 5848 5847 5846 5844 5843 5842 5841 5839 5838 5837 5836 5834 5833 5832
5853 5853 5853 5854 5854 5854 5854 5854 5855 5855 5855 5855 5855 5855 5855 5855 5855 5855 5854 5854 5854 5853 5852 5852 5851 5850 5849 5848 5847 5845 5844 5843 5842 5840 5839 5838 5836 5834 5833 5831 5830 5829 5827
5851 5851 5851 5852 5852 5853 5853 5853 5853 5853 5853 5853 5853 5853 5853 5853 5853 5853 5853 5852 5852 5851 5850 5849 5849 5847 5846 5845 5844 5842 5841 5840 5838 5837 5836 5834 5833 5831 5829 5828 5826 5825 5823
5848 5849 5849 5850 5850 5851 5851 5851 5851 5851 5851 5851 5851 5852 5851 5851 5851 5851 5851 5850 5849 5849 5848 5847 5846 5845 5844 5842 5841 5839 5838 5837 5835 5834 5832 5831 5829 5828 5826 5824 5822 5821 5819
5846 5847 5847 5848 5848 5849 5849 5849 5849 5849 5849 5849 5849 5850 5849 5849 5849 5849 5848 5848 5847 5846 5845 5844 5843 5842 5841 5839 5838 5836 5835 5833 5832 5830 5829 5827 5826 5824 5822 5820 5818 5816 5815
5843 5844 5845 5845 5846 5846 5847 5847 5847 5847 5847 5847 5847 5847 5847 5847 5847 5846 5846 5845 5845 5844 5843 5842 5840 5839 5838 5836 5835 5833 5832 5830 5829 5827 5825 5824 5822 5820 5818 5816 5814 5812 5810
5840 5841 5842 5843 5843 5844 5844 5844 5845 5845 5845 5845 5845 5845 5845 5845 5844 5844 5843 5843 5842 5841 5840 5839 5838 5836 5835 5833 5832 5830 5829 5827 5825 5824 5822 5820 5818 5816 5814 5812 5810 5808 5806
5837 5838 5839 5840 5840 5841 5841 5841 5842 5842 5842 5842 5842 5842 5842 5842 5841 5841 5840 5840 5839 5838 5837 5836 5835 5833 5832 5830 5828 5827 5825 5824 5822 5820 5818 5816 5814 5812 5810 5808 5806 5804 5801
5833 5834 5836 5836 5837 5838 5838 5838 5839 5839 5839 5839 5839 5839 5839 5839 5838 5838 5837 5837 5836 5835 5834 5833 5831 5830 5828 5827 5825 5823 5822 5820 5818 5816 5814 5812 5810 5808 5806 5804 5801 5799 5797
5829 5830 5831 5833 5833 5834 5835 5835 5835 5836 5836 5836 5836 5836 5836 5835 5835 5835 5834 5833 5832 5832 5830 5829 5828 5826 5825 5823 5821 5820 5818 5816 5814 5812 5810 5808 5806 5804 5801 5799 5797 5794 5792
5825 5826 5827 5828 5829 5830 5831 5831 5832 5832 5832 5832 5832 5832 5832 5832 5832 5831 5830 5830 5829 5828 5827 5825 5824 5823 5821 5819 5818 5816 5814 5812 5810 5808 5806 5804 5801 5799 5797 5794 5792 5789 5787
5820 5821 5823 5824 5825 5826 5827 5827 5828 5828 5828 5828 5828 5828 5828 5828 5828 5827 5826 5826 5825 5824 5822 5821 5820 5818 5817 5815 5813 5812 5810 5808 5806 5803 5801 5799 5796 5794 5792 5789 5786 5784 5781
5815 5816 5818 5819 5820 5821 5822 5823 5823 5823 5824 5824 5824 5824 5824 5824 5823 5823 5822 5821 5820 5819 5818 5817 5815 5814 5812 5810 5809 5807 5805 5803 5801 5798 5796 5794 5791 5789 5786 5784 5781 5778 5776
5809 5811 5812 5814 5815 5816 5817 5818 5818 5819 5819 5819 5819 5819 5819 5819 5819 5818 5817 5816 5815 5814 5813 5812 5810 5809 5807 5805 5804 5802 5800 5798 5795 5793 5791 5788 5786 5783 5781 5778 5775 5773 5770
5803 5805 5806 5808 5809 5810 5811 5812 5813 5814 5814 5814 5814 5814 5814 5814 5813 5813 5812 5811 5810 5809 5808 5807 5805 5804 5802 5800 5798 5796 5794 5792 5790 5787 5785 5783 5780 5778 5775 5772 5769 5766 5763
5797 5799 5800 5802 5803 5804 5805 5807 5807 5808 5808 5809 5809 5809 5809 5808 5808 5807 5807 5806 5805 5804 5802 5801 5800 5798 5797 5795 5793 5791 5789 5786 5784 5781 5779 5776 5774 5771 5769 5766 5763 5760 5757
5790 5792 5793 5795 5796 5798 5799 5800 5801 5802 5802 5803 5803 5803 5803 5803 5802 5802 5801 5800 5799 5798 5797 5795 5794 5792 5791 5789 5787 5785 5782 5780 5778 5775 5773 5770 5767 5765 5762 5759 5756 5753 5750
5783 5785 5787 5788 5790 5791 5792 5794 5795 5796 5796 5796 5797 5797 5797 5797 5796 5796 5795 5794 5793 5792 5791 5789 5788 5786 5784 5782 5780 5778 5776 5774 5771 5769 5766 5763 5761 5758 5755 5752 5749 5746 5742
5776 5778 5780 5781 5783 5784 5785 5787 5788 5789 5789 5790 5790 5790 5790 5790 5790 5789 5788 5788 5787 5786 5784 5783 5781 5779 5777 5776 5774 5772 5770 5767 5765 5762 5759 5757 5754 5751 5748 5745 5742 5738 5734
5768 5770 5772 5774 5775 5777 5778 5780 5781 5782 5782 5783 5783 5783 5783 5783 5783 5782 5782 5781 5780 5779 5777 5776 5774 5772 5770 5769 5767 5765 5763 5762 5758 5755 5752 5749 5746 5743 5740 5737 5733 5730 5726
5760 5762 5764 5766 5767 5769 5770 5771 5773 5773 5774 5775 5776 5776 5776 5776 5775 5775 5774 5774 5773 5772 5770 5768 5767 5765 5763 5761 5759 5757 5756 5754 5751 5749 5745 5742 5738 5735 5732 5728 5725 5721 5717
5750 5753 5755 5757 5759 5760 5762 5763 5765 5766 5767 5767 5767 5768 5768 5768 5767 5767 5767 5766 5765 5764 5762 5761 5759 5757 5756 5754 5751 5749 5747 5745 5743 5741 5738 5734 5731 5727 5724 5720 5716 5712 5708
5740 5743 5745 5747 5749 5751 5753 5755 5756 5758 5759 5759 5759 5759 5759 5759 5759 5759 5758 5758 5757 5755 5754 5753 5751 5749 5747 5746 5743 5741 5739 5737 5734 5732 5730 5727 5723 5719 5715 5711 5707 5703 5698
5730 5732 5735 5737 5740 5742 5743 5745 5747 5749 5749 5750 5750 5750 5750 5751 5751 5750 5750 5749 5748 5747 5746 5744 5742 5741 5739 5737 5735 5733 5730 5728 5725 5722 5720 5717 5714 5711 5706 5702 5697 5693 5688